KRP501 LRTR-LBSF

Flight info

Callsign KRP501
Flight time 0h 46m
Altitude 33000
Route MAVIT DCT DONIV DCT OBAGI DCT NISVA
Aircraft A319/M-SDE3FGHIRWY/LB1

Departure

Time 2026-04-26 10:53
Airport Timișoara Traian Vuia International Airport (LRTR)

Arrival

Time 2026-04-26 11:39
Airport Sofia Airport (LBSF)
Time Latitude Longitude Altitude Speed Heading
2026-04-26 10:34 45.81056 21.32134 342 ft 0 kts 199°
2026-04-26 10:42 45.81062 21.32137 342 ft 2 kts 195°
2026-04-26 10:43 45.81077 21.32144 351 ft 2 kts 199°
2026-04-26 10:43 45.81093 21.32153 342 ft 2 kts 194°
2026-04-26 10:43 45.81109 21.32154 350 ft 2 kts 136°
2026-04-26 10:43 45.81118 21.32137 349 ft 1 kts 112°
2026-04-26 10:44 45.81119 21.32134 345 ft 0 kts 110°
2026-04-26 10:45 45.81119 21.32135 346 ft 1 kts 110°
2026-04-26 10:45 45.81110 21.32168 346 ft 6 kts 110°
2026-04-26 10:45 45.81088 21.32256 344 ft 12 kts 110°
2026-04-26 10:46 45.81055 21.32383 342 ft 10 kts 110°
2026-04-26 10:46 45.81072 21.32457 342 ft 9 kts 17°
2026-04-26 10:46 45.81087 21.32529 342 ft 9 kts 109°
2026-04-26 10:46 45.81062 21.32630 342 ft 14 kts 110°
2026-04-26 10:47 45.81022 21.32786 348 ft 19 kts 110°
2026-04-26 10:47 45.80971 21.32988 344 ft 22 kts 110°
2026-04-26 10:47 45.80919 21.33198 345 ft 22 kts 110°
2026-04-26 10:47 45.80872 21.33382 342 ft 15 kts 110°
2026-04-26 10:48 45.80887 21.33519 348 ft 15 kts 43°
2026-04-26 10:48 45.80980 21.33573 343 ft 14 kts 20°
2026-04-26 10:48 45.81006 21.33694 343 ft 14 kts 109°
2026-04-26 10:48 45.80973 21.33823 346 ft 14 kts 110°
2026-04-26 10:49 45.80939 21.33958 351 ft 15 kts 110°
2026-04-26 10:49 45.80902 21.34104 342 ft 16 kts 110°
2026-04-26 10:49 45.80864 21.34257 335 ft 17 kts 110°
2026-04-26 10:49 45.80822 21.34426 337 ft 18 kts 110°
2026-04-26 10:50 45.80781 21.34590 338 ft 17 kts 109°
2026-04-26 10:50 45.80755 21.34696 341 ft 17 kts 110°
2026-04-26 10:50 45.80692 21.34942 352 ft 23 kts 110°
2026-04-26 10:50 45.80636 21.35164 348 ft 24 kts 109°
2026-04-26 10:51 45.80581 21.35385 344 ft 24 kts 109°
2026-04-26 10:51 45.80498 21.35775 342 ft 16 kts 82°
2026-04-26 10:51 45.80492 21.35881 346 ft 6 kts 122°
2026-04-26 10:52 45.80460 21.35878 342 ft 4 kts 232°
2026-04-26 10:52 45.80465 21.35848 347 ft 0 kts 289°
2026-04-26 10:52 45.80469 21.35831 342 ft 6 kts 289°
2026-04-26 10:52 45.80556 21.35483 351 ft 75 kts 290°
2026-04-26 10:53 45.80812 21.34478 338 ft 138 kts 290°
2026-04-26 10:53 45.81166 21.33074 782 ft 151 kts 291°
2026-04-26 10:53 45.81526 21.31661 1571 ft 151 kts 289°
2026-04-26 10:54 45.80921 21.28820 2705 ft 189 kts 214°
2026-04-26 10:54 45.79524 21.28396 3216 ft 222 kts 186°
2026-04-26 10:54 45.77886 21.28392 3796 ft 248 kts 181°
2026-04-26 10:54 45.76090 21.28506 4587 ft 266 kts 180°
2026-04-26 10:55 45.74215 21.28653 5562 ft 273 kts 180°
2026-04-26 10:55 45.72297 21.28796 6536 ft 279 kts 181°
2026-04-26 10:55 45.70337 21.28920 7459 ft 285 kts 181°
2026-04-26 10:55 45.68328 21.29026 8363 ft 292 kts 181°
2026-04-26 10:56 45.66274 21.29121 9278 ft 299 kts 181°
2026-04-26 10:56 45.64173 21.29208 10142 ft 305 kts 181°
2026-04-26 10:56 45.61977 21.29290 10592 ft 328 kts 181°
2026-04-26 10:56 45.59634 21.29373 11114 ft 343 kts 181°
2026-04-26 10:57 45.57222 21.29465 11894 ft 349 kts 180°
2026-04-26 10:57 45.54776 21.29565 12731 ft 354 kts 180°
2026-04-26 10:57 45.52301 21.29671 13569 ft 358 kts 180°
2026-04-26 10:57 45.49799 21.29779 14313 ft 362 kts 180°
2026-04-26 10:58 45.47266 21.29889 15044 ft 365 kts 180°
2026-04-26 10:58 45.44714 21.29998 15752 ft 369 kts 180°
2026-04-26 10:58 45.42132 21.30105 16460 ft 373 kts 180°
2026-04-26 10:58 45.39531 21.30210 17168 ft 376 kts 180°
2026-04-26 10:59 45.36902 21.30314 17882 ft 380 kts 180°
2026-04-26 10:59 45.34245 21.30418 18551 ft 384 kts 180°
2026-04-26 10:59 45.31567 21.30524 19162 ft 387 kts 180°
2026-04-26 10:59 45.28859 21.30631 19773 ft 391 kts 180°
2026-04-26 11:00 45.26131 21.30740 20386 ft 394 kts 180°
2026-04-26 11:00 45.23390 21.30598 20984 ft 396 kts 189°
2026-04-26 11:00 45.20683 21.29888 21603 ft 398 kts 194°
2026-04-26 11:00 45.17955 21.29102 22201 ft 401 kts 194°
2026-04-26 11:01 45.15206 21.28316 22811 ft 405 kts 193°
2026-04-26 11:01 45.12435 21.27531 23409 ft 408 kts 193°
2026-04-26 11:01 45.09637 21.26742 23936 ft 411 kts 193°
2026-04-26 11:01 45.06822 21.25950 24416 ft 415 kts 193°
2026-04-26 11:02 45.03980 21.25147 24891 ft 418 kts 193°
2026-04-26 11:02 45.01119 21.24336 25354 ft 421 kts 193°
2026-04-26 11:02 44.98240 21.23521 25810 ft 424 kts 193°
2026-04-26 11:02 44.95337 21.22701 26239 ft 427 kts 193°
2026-04-26 11:03 44.92409 21.21873 26691 ft 430 kts 193°
2026-04-26 11:03 44.89461 21.21039 27121 ft 433 kts 193°
2026-04-26 11:03 44.86498 21.20204 27549 ft 436 kts 193°
2026-04-26 11:03 44.83515 21.19368 27993 ft 439 kts 193°
2026-04-26 11:04 44.80500 21.18561 28422 ft 443 kts 190°
2026-04-26 11:04 44.77411 21.18300 28834 ft 448 kts 180°
2026-04-26 11:04 44.74297 21.18810 29243 ft 453 kts 169°
2026-04-26 11:04 44.71269 21.20102 29657 ft 457 kts 158°
2026-04-26 11:05 44.68415 21.22114 30063 ft 460 kts 150°
2026-04-26 11:05 44.65625 21.24343 30410 ft 463 kts 150°
2026-04-26 11:05 44.62815 21.26573 30747 ft 465 kts 150°
2026-04-26 11:05 44.59983 21.28814 31084 ft 468 kts 150°
2026-04-26 11:06 44.57143 21.31060 31407 ft 470 kts 150°
2026-04-26 11:06 44.55213 21.32583 31617 ft 472 kts 150°
2026-04-26 11:06 44.51417 21.35581 32151 ft 472 kts 150°
2026-04-26 11:06 44.48558 21.37840 32617 ft 472 kts 150°
2026-04-26 11:07 44.45700 21.40100 32977 ft 472 kts 150°
2026-04-26 11:07 44.42855 21.42347 33057 ft 465 kts 150°
2026-04-26 11:07 44.40080 21.44534 33060 ft 450 kts 150°
2026-04-26 11:07 44.37371 21.46664 33063 ft 444 kts 150°
2026-04-26 11:08 44.32015 21.50873 33061 ft 441 kts 150°
2026-04-26 11:08 44.26666 21.55061 33060 ft 440 kts 150°
2026-04-26 11:09 44.21327 21.59240 33066 ft 441 kts 150°
2026-04-26 11:09 44.15979 21.63406 33056 ft 440 kts 150°
2026-04-26 11:10 44.10639 21.67558 33051 ft 439 kts 150°
2026-04-26 11:10 44.05310 21.71706 33047 ft 439 kts 150°
2026-04-26 11:11 43.99984 21.75840 33045 ft 438 kts 150°
2026-04-26 11:11 43.94661 21.79969 33045 ft 438 kts 150°
2026-04-26 11:12 43.89341 21.84082 33044 ft 438 kts 150°
2026-04-26 11:12 43.84879 21.87515 33044 ft 438 kts 150°
2026-04-26 11:13 43.79560 21.91603 33043 ft 437 kts 150°
2026-04-26 11:13 43.74240 21.95688 33044 ft 437 kts 150°
2026-04-26 11:14 43.68926 21.99761 33042 ft 437 kts 150°
2026-04-26 11:14 43.63607 22.03826 32979 ft 438 kts 150°
2026-04-26 11:15 43.60941 22.05855 32705 ft 435 kts 150°
2026-04-26 11:15 43.58302 22.07862 32246 ft 432 kts 150°
2026-04-26 11:15 43.55769 22.10034 31768 ft 427 kts 142°
2026-04-26 11:15 43.53502 22.12652 31309 ft 423 kts 137°
2026-04-26 11:16 43.51303 22.15330 30850 ft 420 kts 137°
2026-04-26 11:16 43.49113 22.17983 30407 ft 418 kts 137°
2026-04-26 11:16 43.46932 22.20609 29941 ft 416 kts 137°
2026-04-26 11:16 43.44761 22.23215 29493 ft 412 kts 137°
2026-04-26 11:17 43.42614 22.25790 29071 ft 408 kts 137°
2026-04-26 11:17 43.40486 22.28345 28657 ft 404 kts 137°
2026-04-26 11:17 43.38379 22.30879 28251 ft 401 kts 137°
2026-04-26 11:17 43.36285 22.33394 27847 ft 398 kts 137°
2026-04-26 11:18 43.34208 22.35885 27433 ft 395 kts 137°
2026-04-26 11:18 43.32141 22.38361 27019 ft 393 kts 137°
2026-04-26 11:18 43.30091 22.40815 26610 ft 390 kts 137°
2026-04-26 11:18 43.28045 22.43261 26184 ft 388 kts 137°
2026-04-26 11:19 43.26016 22.45682 25763 ft 386 kts 137°
2026-04-26 11:19 43.23995 22.48092 25322 ft 384 kts 137°
2026-04-26 11:19 43.21983 22.50488 24888 ft 382 kts 137°
2026-04-26 11:19 43.19982 22.52869 24448 ft 381 kts 138°
2026-04-26 11:20 43.17984 22.55243 23998 ft 379 kts 138°
2026-04-26 11:20 43.16642 22.56840 23697 ft 378 kts 138°
2026-04-26 11:20 43.14015 22.59958 23050 ft 376 kts 138°
2026-04-26 11:20 43.12049 22.62286 22619 ft 372 kts 138°
2026-04-26 11:21 43.10099 22.64593 22184 ft 369 kts 138°
2026-04-26 11:21 43.08158 22.66890 21756 ft 367 kts 138°
2026-04-26 11:21 43.06237 22.69166 21331 ft 365 kts 138°
2026-04-26 11:21 43.04329 22.71424 20922 ft 362 kts 138°
2026-04-26 11:22 43.02425 22.73674 20502 ft 361 kts 138°
2026-04-26 11:22 43.00530 22.75914 20093 ft 359 kts 139°
2026-04-26 11:22 42.98684 22.78201 19680 ft 358 kts 132°
2026-04-26 11:22 42.97162 22.80870 19278 ft 355 kts 120°
2026-04-26 11:23 42.96062 22.83871 18882 ft 352 kts 110°
2026-04-26 11:23 42.95157 22.86978 18483 ft 352 kts 110°
2026-04-26 11:23 42.94246 22.90075 18053 ft 352 kts 110°
2026-04-26 11:23 42.93329 22.93159 17651 ft 350 kts 110°
2026-04-26 11:24 42.92415 22.96224 17275 ft 348 kts 110°
2026-04-26 11:24 42.91505 22.99272 16845 ft 347 kts 111°
2026-04-26 11:24 42.90588 23.02347 16257 ft 352 kts 111°
2026-04-26 11:24 42.89664 23.05454 15685 ft 356 kts 111°
2026-04-26 11:25 42.88731 23.08590 15115 ft 359 kts 111°
2026-04-26 11:25 42.87787 23.11753 14567 ft 362 kts 111°
2026-04-26 11:25 42.86834 23.14944 14020 ft 364 kts 111°
2026-04-26 11:25 42.85875 23.18143 13434 ft 365 kts 111°
2026-04-26 11:26 42.84914 23.21355 12833 ft 366 kts 111°
2026-04-26 11:26 42.83952 23.24567 12239 ft 366 kts 112°
2026-04-26 11:26 42.82990 23.27770 11666 ft 365 kts 112°
2026-04-26 11:26 42.82028 23.30973 11098 ft 364 kts 112°
2026-04-26 11:27 42.81071 23.34155 10503 ft 363 kts 112°
2026-04-26 11:27 42.80104 23.37370 9893 ft 362 kts 112°
2026-04-26 11:27 42.79162 23.40496 9256 ft 360 kts 112°
2026-04-26 11:27 42.78211 23.43636 9020 ft 346 kts 112°
2026-04-26 11:28 42.77327 23.46550 8990 ft 329 kts 112°
2026-04-26 11:28 42.76472 23.49370 8868 ft 316 kts 111°
2026-04-26 11:28 42.75649 23.52092 8626 ft 307 kts 111°
2026-04-26 11:28 42.74842 23.54758 8304 ft 304 kts 111°
2026-04-26 11:29 42.74036 23.57412 7921 ft 303 kts 112°
2026-04-26 11:29 42.73236 23.60039 7549 ft 300 kts 112°
2026-04-26 11:29 42.72649 23.62754 7176 ft 298 kts 98°
2026-04-26 11:29 42.72352 23.65529 6797 ft 294 kts 96°
2026-04-26 11:30 42.72072 23.68240 6625 ft 275 kts 96°
2026-04-26 11:30 42.71908 23.69897 6532 ft 260 kts 96°
2026-04-26 11:30 42.71587 23.72992 6246 ft 243 kts 96°
2026-04-26 11:30 42.71352 23.75273 5992 ft 237 kts 96°
2026-04-26 11:31 42.71121 23.77472 5982 ft 239 kts 96°
2026-04-26 11:31 42.70882 23.79728 5987 ft 242 kts 96°
2026-04-26 11:31 42.70589 23.81981 5971 ft 243 kts 107°
2026-04-26 11:31 42.69751 23.83951 5979 ft 236 kts 134°
2026-04-26 11:32 42.68419 23.85170 5712 ft 229 kts 162°
2026-04-26 11:32 42.66868 23.85444 5315 ft 225 kts 189°
2026-04-26 11:32 42.65405 23.84814 5028 ft 221 kts 215°
2026-04-26 11:32 42.64289 23.83458 4769 ft 215 kts 239°
2026-04-26 11:33 42.63682 23.81658 4581 ft 208 kts 261°
2026-04-26 11:33 42.63643 23.79723 4300 ft 203 kts 283°
2026-04-26 11:33 42.64123 23.77948 4121 ft 204 kts 297°
2026-04-26 11:33 42.64718 23.76197 4014 ft 200 kts 297°
2026-04-26 11:34 42.65299 23.74455 4006 ft 203 kts 296°
2026-04-26 11:34 42.65877 23.72714 3986 ft 200 kts 295°
2026-04-26 11:34 42.66456 23.70968 3983 ft 201 kts 295°
2026-04-26 11:34 42.67033 23.69232 3996 ft 204 kts 295°
2026-04-26 11:35 42.67607 23.67503 3995 ft 194 kts 296°
2026-04-26 11:35 42.68114 23.65846 3972 ft 188 kts 287°
2026-04-26 11:35 42.68288 23.64083 4002 ft 191 kts 277°
2026-04-26 11:35 42.68354 23.62915 4019 ft 181 kts 278°
2026-04-26 11:36 42.68481 23.60743 3983 ft 164 kts 279°
2026-04-26 11:36 42.68575 23.59215 3876 ft 162 kts 277°
2026-04-26 11:36 42.68668 23.57709 3714 ft 156 kts 278°
2026-04-26 11:36 42.68759 23.56254 3529 ft 153 kts 278°
2026-04-26 11:37 42.68846 23.54828 3330 ft 149 kts 278°
2026-04-26 11:37 42.68930 23.53461 3149 ft 140 kts 278°
2026-04-26 11:37 42.69008 23.52172 2951 ft 133 kts 277°
2026-04-26 11:37 42.69085 23.50924 2780 ft 133 kts 279°
2026-04-26 11:38 42.69161 23.49691 2603 ft 129 kts 278°
2026-04-26 11:38 42.69235 23.48480 2429 ft 129 kts 276°
2026-04-26 11:38 42.69310 23.47256 2267 ft 130 kts 276°
2026-04-26 11:38 42.69384 23.46041 2097 ft 128 kts 275°
2026-04-26 11:39 42.69458 23.44824 1938 ft 129 kts 274°
2026-04-26 11:39 42.69534 23.43618 1772 ft 127 kts 274°
2026-04-26 11:39 42.69596 23.42579 1744 ft 88 kts 274°
2026-04-26 11:39 42.69634 23.41941 1750 ft 44 kts 274°
2026-04-26 11:40 42.69606 23.41633 1748 ft 30 kts 249°
2026-04-26 11:40 42.69564 23.41504 1750 ft 1 kts 245°
2026-04-26 11:40 42.69564 23.41502 1750 ft 0 kts 245°
2026-04-26 11:42 42.69242 23.41150 1750 ft 14 kts 192°
2026-04-26 11:43 42.69149 23.41118 1750 ft 14 kts 206°
2026-04-26 11:43 42.69107 23.41004 1750 ft 14 kts 252°
2026-04-26 11:43 42.69077 23.40874 1750 ft 15 kts 252°
2026-04-26 11:43 42.69062 23.40735 1745 ft 16 kts 284°
2026-04-26 11:44 42.69094 23.40590 1745 ft 16 kts 286°
2026-04-26 11:44 42.69127 23.40442 1747 ft 16 kts 287°
2026-04-26 11:44 42.69132 23.40397 1749 ft 4 kts 252°
2026-04-26 11:44 42.69108 23.40381 1746 ft 4 kts 193°
2026-04-26 11:45 42.69076 23.40369 1749 ft 5 kts 195°
2026-04-26 11:45 42.69060 23.40363 1749 ft 0 kts 195°